Dati Storici

Data ora Umidita' aria (%) Temperatura aria (°C) Rad globale (W/m²) Gonioanemometro (°) Tacoanemometro (m/s) Pioggia (mm)
17-06-2020 13:30 71 % 21.964 -58.867 3.482 0 0
17-06-2020 13:20 64.3 % 23.021 -73.476 2.862 0 0
17-06-2020 13:10 63.7 % 23.368 -44.337 1.847 0 0
17-06-2020 13:00 62.8 % 23.647 -56.973 1.101 0 0
17-06-2020 12:50 59.4 % 24.1 -47.807 2.907 0 0
17-06-2020 12:40 57.4 % 24.952 -59.076 0.766 0 0
17-06-2020 12:30 57.1 % 24.783 -45.653 1.511 0 0
17-06-2020 12:20 62.9 % 25.2 -44.806 -0.036 0 0
17-06-2020 12:10 70.6 % 24.31 -47.548 -0.027 0 0
17-06-2020 12:00 71.1 % 22.503 -47.517 0.564 0 0
17-06-2020 11:50 69.2 % 22.879 -53.662 0.642 0 0
17-06-2020 11:40 66.9 % 22.674 -54.821 2.157 0 0
17-06-2020 11:30 63.3 % 22.791 -53.669 1.182 0 0
17-06-2020 11:20 58.1 % 23.904 -48.048 1.353 0 0
17-06-2020 11:10 55.3 % 24.524 -41.607 3.017 0 0
17-06-2020 11:00 57.2 % 25.233 -43.646 1.948 0 0
17-06-2020 10:50 56.4 % 24.736 -59.419 1.77 0 0
17-06-2020 10:40 56.9 % 25.004 -50.003 0.988 0 0
17-06-2020 10:30 59.9 % 25.063 -77.52 0.909 0 0
17-06-2020 10:20 58 % 24.375 -48.247 2.358 0 0

I dati sono presentati in modo automatico a scopo informativo. In seguito a verifica i dati possono subire modifiche o essere invalidati e non riportati negli archivi definitivi.